Time,TemperatureF,DewpointF,PressureIn,WindDirection,WindDirectionDegrees,WindSpeedMPH,WindSpeedGustMPH,Humidity,HourlyPrecipIn,Conditions,Clouds,dailyrainin,SolarRadiationWatts/m^2,SoftwareType,DateUTC
2013-01-30 00:04:00,63.0,58.0,-100.00,South,170,10.0,23.0,83,0.02,,,0.02,0.000000,,2013-01-30 05:04:00,
2013-01-30 00:32:00,64.0,60.0,-100.00,South,173,14.0,24.0,86,0.01,,,0.03,0.000000,,2013-01-30 05:32:00,
2013-01-30 00:43:00,64.0,60.0,-100.00,South,173,14.0,24.0,86,0.01,,,0.03,0.000000,,2013-01-30 05:43:00,
2013-01-30 00:52:00,64.0,60.0,-100.00,South,173,14.0,24.0,86,0.01,,,0.03,0.000000,,2013-01-30 05:52:00,
2013-01-30 01:02:00,64.0,60.0,-100.00,South,173,14.0,24.0,86,0.01,,,0.03,0.000000,,2013-01-30 06:02:00,
2013-01-30 01:32:00,64.0,57.0,-100.00,SSE,167,15.0,25.0,79,0.00,,,0.03,0.000000,,2013-01-30 06:32:00,
2013-01-30 01:42:00,64.0,57.0,-100.00,SSE,167,15.0,25.0,79,0.00,,,0.03,0.000000,,2013-01-30 06:42:00,
2013-01-30 01:52:00,64.0,57.0,-100.00,SSE,167,15.0,25.0,79,0.00,,,0.03,0.000000,,2013-01-30 06:52:00,
2013-01-30 02:02:00,64.0,57.0,-100.00,SSE,167,15.0,25.0,79,0.00,,,0.03,0.000000,,2013-01-30 07:02:00,
2013-01-30 02:32:00,64.0,58.0,-100.00,South,171,12.0,25.0,80,0.00,,,0.03,0.000000,,2013-01-30 07:32:00,
2013-01-30 02:42:00,64.0,58.0,-100.00,South,171,12.0,25.0,80,0.00,,,0.03,0.000000,,2013-01-30 07:42:00,
2013-01-30 02:52:00,64.0,58.0,-100.00,South,171,12.0,25.0,80,0.00,,,0.03,0.000000,,2013-01-30 07:52:00,
2013-01-30 03:02:00,64.0,58.0,-100.00,South,171,12.0,25.0,80,0.00,,,0.03,0.000000,,2013-01-30 08:02:00,
2013-01-30 03:32:00,64.0,59.0,-100.00,SSE,167,14.0,27.0,83,0.00,,,0.03,0.000000,,2013-01-30 08:32:00,
2013-01-30 03:42:00,64.0,59.0,-100.00,SSE,167,14.0,27.0,83,0.00,,,0.03,0.000000,,2013-01-30 08:42:00,
2013-01-30 03:52:00,64.0,59.0,-100.00,SSE,167,14.0,27.0,83,0.00,,,0.03,0.000000,,2013-01-30 08:52:00,
2013-01-30 04:02:00,64.0,59.0,-100.00,SSE,167,14.0,27.0,83,0.00,,,0.03,0.000000,,2013-01-30 09:02:00,
2013-01-30 04:32:00,64.0,60.0,-100.00,South,180,16.0,27.0,86,0.00,,,0.03,0.000000,,2013-01-30 09:32:00,
2013-01-30 04:42:00,64.0,60.0,-100.00,South,180,16.0,27.0,86,0.00,,,0.03,0.000000,,2013-01-30 09:42:00,
2013-01-30 04:52:00,64.0,60.0,-100.00,South,180,16.0,27.0,86,0.00,,,0.03,0.000000,,2013-01-30 09:52:00,
2013-01-30 05:02:00,64.0,60.0,-100.00,South,180,16.0,27.0,86,0.00,,,0.03,0.000000,,2013-01-30 10:02:00,
2013-01-30 05:32:00,63.0,59.0,-100.00,South,177,17.0,27.0,87,0.01,,,0.04,0.000000,,2013-01-30 10:32:00,
2013-01-30 05:42:00,63.0,59.0,-100.00,South,177,17.0,27.0,87,0.01,,,0.04,0.000000,,2013-01-30 10:42:00,
2013-01-30 05:52:00,63.0,59.0,-100.00,South,177,17.0,27.0,87,0.01,,,0.04,0.000000,,2013-01-30 10:52:00,
2013-01-30 06:02:00,63.0,59.0,-100.00,South,177,17.0,27.0,87,0.01,,,0.04,0.000000,,2013-01-30 11:02:00,
2013-01-30 06:33:00,66.0,61.0,-100.00,South,187,18.0,37.0,84,0.00,,,0.04,0.000000,,2013-01-30 11:33:00,
2013-01-30 06:42:00,66.0,61.0,-100.00,South,187,18.0,37.0,84,0.00,,,0.04,0.000000,,2013-01-30 11:42:00,
2013-01-30 06:52:00,66.0,61.0,-100.00,South,187,18.0,37.0,84,0.00,,,0.04,0.000000,,2013-01-30 11:52:00,
2013-01-30 07:02:00,66.0,61.0,-100.00,South,187,18.0,37.0,84,0.00,,,0.04,0.000000,,2013-01-30 12:02:00,
2013-01-30 07:33:00,63.0,61.0,-100.00,South,178,16.0,30.0,92,0.06,,,0.10,0.000000,,2013-01-30 12:33:00,
2013-01-30 07:43:00,63.0,61.0,-100.00,South,178,16.0,30.0,92,0.06,,,0.10,0.000000,,2013-01-30 12:43:00,
2013-01-30 08:03:00,63.0,61.0,-100.00,South,178,16.0,30.0,92,0.06,,,0.10,0.000000,,2013-01-30 13:03:00,
2013-01-30 08:33:00,64.0,62.0,-100.00,SSE,166,15.0,34.0,94,0.05,,,0.15,2.000000,,2013-01-30 13:33:00,
2013-01-30 08:43:00,64.0,62.0,-100.00,SSE,166,15.0,34.0,94,0.05,,,0.15,2.000000,,2013-01-30 13:43:00,
2013-01-30 08:53:00,64.0,62.0,-100.00,SSE,166,15.0,34.0,94,0.05,,,0.15,2.000000,,2013-01-30 13:53:00,
2013-01-30 09:03:00,64.0,62.0,-100.00,SSE,166,15.0,34.0,94,0.05,,,0.15,2.000000,,2013-01-30 14:03:00,
2013-01-30 09:33:00,66.0,62.0,-100.00,South,182,21.0,39.0,87,0.01,,,0.16,18.000000,,2013-01-30 14:33:00,
2013-01-30 09:43:00,66.0,62.0,-100.00,South,182,21.0,39.0,87,0.01,,,0.16,18.000000,,2013-01-30 14:43:00,
2013-01-30 09:53:00,66.0,62.0,-100.00,South,182,21.0,39.0,87,0.01,,,0.16,18.000000,,2013-01-30 14:53:00,
2013-01-30 10:03:00,66.0,62.0,-100.00,South,182,21.0,39.0,87,0.01,,,0.16,18.000000,,2013-01-30 15:03:00,
2013-01-30 10:33:00,66.0,62.0,-100.00,South,181,18.0,36.0,87,0.04,,,0.20,75.000000,,2013-01-30 15:33:00,
2013-01-30 10:43:00,66.0,62.0,-100.00,South,181,18.0,36.0,87,0.04,,,0.20,75.000000,,2013-01-30 15:43:00,
2013-01-30 10:53:00,66.0,62.0,-100.00,South,181,18.0,36.0,87,0.04,,,0.20,75.000000,,2013-01-30 15:53:00,
2013-01-30 11:03:00,66.0,62.0,-100.00,South,181,18.0,36.0,87,0.04,,,0.20,75.000000,,2013-01-30 16:03:00,
2013-01-30 11:33:00,65.0,59.0,-100.00,SSW,210,13.0,34.0,80,0.00,,,0.20,43.000000,,2013-01-30 16:33:00,
2013-01-30 11:42:00,65.0,59.0,-100.00,SSW,210,13.0,34.0,80,0.00,,,0.20,43.000000,,2013-01-30 16:42:00,
2013-01-30 11:52:00,65.0,59.0,-100.00,SSW,210,13.0,34.0,80,0.00,,,0.20,43.000000,,2013-01-30 16:52:00,
2013-01-30 12:03:00,65.0,59.0,-100.00,SSW,210,13.0,34.0,80,0.00,,,0.20,43.000000,,2013-01-30 17:03:00,
2013-01-30 12:33:00,55.0,54.0,-100.00,WSW,246,6.0,28.0,97,1.10,,,1.30,8.000000,,2013-01-30 17:33:00,
2013-01-30 12:43:00,55.0,54.0,-100.00,WSW,246,6.0,28.0,97,1.10,,,1.30,8.000000,,2013-01-30 17:43:00,
2013-01-30 12:53:00,55.0,54.0,-100.00,WSW,246,6.0,28.0,97,1.10,,,1.30,8.000000,,2013-01-30 17:53:00,
2013-01-30 13:03:00,55.0,54.0,-100.00,WSW,246,6.0,28.0,97,1.10,,,1.30,8.000000,,2013-01-30 18:03:00,
2013-01-30 13:33:00,55.0,54.0,-100.00,SSW,203,10.0,18.0,98,0.28,,,1.58,19.000000,,2013-01-30 18:33:00,
2013-01-30 13:43:00,55.0,54.0,-100.00,SSW,203,10.0,18.0,98,0.28,,,1.58,19.000000,,2013-01-30 18:43:00,
2013-01-30 13:53:00,55.0,54.0,-100.00,SSW,203,10.0,18.0,98,0.28,,,1.58,19.000000,,2013-01-30 18:53:00,
2013-01-30 14:03:00,55.0,54.0,-100.00,SSW,203,10.0,18.0,98,0.28,,,1.58,19.000000,,2013-01-30 19:03:00,
2013-01-30 14:33:00,56.0,56.0,-100.00,SSW,198,9.0,17.0,99,0.23,,,1.81,35.000000,,2013-01-30 19:33:00,
2013-01-30 14:43:00,56.0,56.0,-100.00,SSW,198,9.0,17.0,99,0.23,,,1.81,35.000000,,2013-01-30 19:43:00,
2013-01-30 14:53:00,56.0,56.0,-100.00,SSW,198,9.0,17.0,99,0.23,,,1.81,35.000000,,2013-01-30 19:53:00,
2013-01-30 15:03:00,56.0,56.0,-100.00,SSW,198,9.0,17.0,99,0.23,,,1.81,35.000000,,2013-01-30 20:03:00,
2013-01-30 15:33:00,55.0,54.0,-100.00,WSW,254,8.0,19.0,98,0.19,,,2.00,29.000000,,2013-01-30 20:33:00,
2013-01-30 15:42:00,55.0,54.0,-100.00,WSW,254,8.0,19.0,98,0.19,,,2.00,29.000000,,2013-01-30 20:42:00,
2013-01-30 15:53:00,55.0,54.0,-100.00,WSW,254,8.0,19.0,98,0.19,,,2.00,29.000000,,2013-01-30 20:53:00,
2013-01-30 16:04:00,55.0,54.0,-100.00,WSW,254,8.0,19.0,98,0.19,,,2.00,29.000000,,2013-01-30 21:04:00,
2013-01-30 16:32:00,48.0,46.0,-100.00,WSW,245,9.0,20.0,94,0.32,,,2.32,17.000000,,2013-01-30 21:32:00,
2013-01-30 16:43:00,48.0,46.0,-100.00,WSW,245,9.0,20.0,94,0.32,,,2.32,17.000000,,2013-01-30 21:43:00,
2013-01-30 16:53:00,48.0,46.0,-100.00,WSW,245,9.0,20.0,94,0.32,,,2.32,17.000000,,2013-01-30 21:53:00,
2013-01-30 17:03:00,48.0,46.0,-100.00,WSW,245,9.0,20.0,94,0.32,,,2.32,17.000000,,2013-01-30 22:03:00,
2013-01-30 17:33:00,46.0,44.0,-100.00,SSW,199,4.0,17.0,92,0.20,,,2.52,12.000000,,2013-01-30 22:33:00,
2013-01-30 17:43:00,46.0,44.0,-100.00,SSW,199,4.0,17.0,92,0.20,,,2.52,12.000000,,2013-01-30 22:43:00,
2013-01-30 17:53:00,46.0,44.0,-100.00,SSW,199,4.0,17.0,92,0.20,,,2.52,12.000000,,2013-01-30 22:53:00,
2013-01-30 18:03:00,46.0,44.0,-100.00,SSW,199,4.0,17.0,92,0.20,,,2.52,12.000000,,2013-01-30 23:03:00,
2013-01-30 18:33:00,45.0,44.0,-100.00,SE,138,6.0,15.0,96,0.10,,,2.62,5.000000,,2013-01-30 23:33:00,
2013-01-30 18:42:00,45.0,44.0,-100.00,SE,138,6.0,15.0,96,0.10,,,2.62,5.000000,,2013-01-30 23:42:00,
2013-01-30 18:52:00,45.0,44.0,-100.00,SE,138,6.0,15.0,96,0.10,,,2.62,5.000000,,2013-01-30 23:52:00,
2013-01-30 19:02:00,45.0,44.0,-100.00,SE,138,6.0,15.0,96,0.10,,,2.62,5.000000,,2013-01-31 00:02:00,
2013-01-30 19:32:00,46.0,45.0,-100.00,South,190,11.0,15.0,95,0.02,,,2.64,0.000000,,2013-01-31 00:32:00,
2013-01-30 19:43:00,46.0,45.0,-100.00,South,190,11.0,15.0,95,0.02,,,2.64,0.000000,,2013-01-31 00:43:00,
2013-01-30 19:53:00,46.0,45.0,-100.00,South,190,11.0,15.0,95,0.02,,,2.64,0.000000,,2013-01-31 00:53:00,
2013-01-30 20:02:00,46.0,45.0,-100.00,South,190,11.0,15.0,95,0.02,,,2.64,0.000000,,2013-01-31 01:02:00,
2013-01-30 21:32:00,45.0,43.0,-100.00,SW,222,10.0,26.0,91,-99.99,,,2.65,0.000000,,2013-01-31 02:32:00,
2013-01-30 21:42:00,45.0,43.0,-100.00,SW,222,10.0,26.0,91,-99.99,,,2.65,0.000000,,2013-01-31 02:42:00,
2013-01-30 21:52:00,45.0,43.0,-100.00,SW,222,10.0,26.0,91,-99.99,,,2.65,0.000000,,2013-01-31 02:52:00,
2013-01-30 22:03:00,45.0,43.0,-100.00,SW,222,10.0,26.0,91,-99.99,,,2.65,0.000000,,2013-01-31 03:03:00,
2013-01-30 22:32:00,40.0,38.0,-100.00,West,263,14.0,34.0,92,0.00,,,2.65,0.000000,,2013-01-31 03:32:00,
2013-01-30 22:42:00,40.0,38.0,-100.00,West,263,14.0,34.0,92,0.00,,,2.65,0.000000,,2013-01-31 03:42:00,
2013-01-30 22:52:00,40.0,38.0,-100.00,West,263,14.0,34.0,92,0.00,,,2.65,0.000000,,2013-01-31 03:52:00,
2013-01-30 23:02:00,40.0,38.0,-100.00,West,263,14.0,34.0,92,0.00,,,2.65,0.000000,,2013-01-31 04:02:00,
2013-01-30 23:32:00,38.0,32.0,-100.00,WSW,247,10.0,26.0,78,0.01,,,2.64,0.000000,,2013-01-31 04:32:00,
2013-01-30 23:42:00,38.0,32.0,-100.00,WSW,247,10.0,26.0,78,0.01,,,2.64,0.000000,,2013-01-31 04:42:00,
2013-01-30 23:52:00,38.0,32.0,-100.00,WSW,247,10.0,26.0,78,0.01,,,2.64,0.000000,,2013-01-31 04:52:00,